Notices

What's New in latest Release from April 7th, 2021:

- Updated Glossary, including Speed of Maximum Gust, and Total Hourly Precipitation

- Updated national and regional climate services offices contacts and prices information

- Addition of station inventory lists for 1981-2010, 1971-2000, and 1961-1990 Normals.

If you haven't already, please take our survey and provide feedback about our website: https://eccc.sondage-survey.ca/f/LanguageSelection.aspx?s=442ca660-fcf1-47c0-95a9-59707d6fd709

Hourly Data Report for March 31, 2020

MIRAMICHI RCS
NEW BRUNSWICK
Current Station Operator: ECCC - MSC

47°00'34.000" N
65°27'54.000" W
33.00 m
8100989
71744
ACQ

Download Data

Hourly Data (March 2020)
Hourly Data Report for March 31, 2020
TIME
LST
Temp Definition
°C
Dew Point Definition
°C
Rel Hum Definition
%
Precip. Amount Definition
mm

Wind Dir Definition
10's deg

Wind Spd Definition
km/h
Visibility Definition
km
Stn Press Definition
kPa
Hmdx Definition


Wind Chill Definition


Weather Definition


00:00 -2.7 -6.5 75 LegendMM 2 10   101.83   -7 LegendNANA
01:00 -3.0 -6.9 75 LegendMM 2 10   101.79   -7 LegendNANA
02:00 -3.0 -6.9 74 LegendMM 2 9   101.73   -7 LegendNANA
03:00 -2.8 -6.9 73 LegendMM 2 12   101.64   -7 LegendNANA
04:00 -2.2 -7.1 69 LegendMM 3 14   101.60   -7 LegendNANA
05:00 -2.2 -7.9 65 LegendMM 3 13   101.58   -7 LegendNANA
06:00 -2.6 -8.5 64 LegendMM 3 12   101.60   -7 LegendNANA
07:00 -2.8 -8.1 67 LegendMM 36 8   101.58   -6 LegendNANA
08:00 -0.6 -8.7 54 LegendMM 3 16   101.57   -5 LegendNANA
09:00 -0.1 -8.9 52 LegendMM 3 23   101.55   -6 LegendNANA
10:00 0.2 -8.3 53 LegendMM 5 22   101.54     LegendNANA
11:00 0.4 -6.5 60 LegendMM 5 18   101.52     LegendNANA
12:00 -0.7 -5.3 71 LegendMM 3 18   101.51   -6 LegendNANA
13:00 -0.8 -4.0 79 LegendMM 4 20   101.48   -6 LegendNANA
14:00 -0.2 -4.7 71 LegendMM 3 22   101.46   -6 LegendNANA
15:00 0.0 -3.1 80 LegendMM 3 17   101.47   -5 LegendNANA
16:00 -0.1 -2.7 83 LegendMM 2 16   101.45   -5 LegendNANA
17:00 -0.1 -1.6 90 LegendMM 3 13   101.41   -4 LegendNANA
18:00 0.0 -1.2 91 LegendMM 3 12   101.41   -4 LegendNANA
19:00 -0.3 -1.1 94 LegendMM 4 15   101.38   -5 LegendNANA
20:00 -0.1 -1.4 91 LegendMM 3 18   101.34   -5 LegendNANA
21:00 -0.1 -1.1 93 LegendMM 4 17   101.32   -5 LegendNANA
22:00 0.2 -0.6 94 LegendMM 5 20   101.31     LegendNANA
23:00 0.1 -0.7 94 LegendMM 5 19   101.25     LegendNANA

Notes on Data Quality.

Legend

  • E = Estimated
  • M = Missing
  • NA = Not Available*
  • [empty] = Indicates an unobserved value
Date modified: